TimeCDT,TemperatureF,Dew PointF,Humidity,Sea Level PressureIn,VisibilityMPH,Wind Direction,Wind SpeedMPH,Gust SpeedMPH,PrecipitationIn,Events,Conditions,WindDirDegrees,DateUTC
12:15 AM,71.6,61.2,70,30.00,10.0,SSW,4.6,-,N/A,,Clear,200,2013-08-02 05:15:00
12:35 AM,71.4,61.9,72,30.00,10.0,South,5.8,-,N/A,,Clear,190,2013-08-02 05:35:00
12:55 AM,71.6,62.2,72,29.99,10.0,South,6.9,-,N/A,,Clear,190,2013-08-02 05:55:00
1:15 AM,71.6,62.4,73,29.98,10.0,South,4.6,-,N/A,,Clear,190,2013-08-02 06:15:00
1:35 AM,71.1,62.6,75,29.98,10.0,South,4.6,-,N/A,,Clear,190,2013-08-02 06:35:00
1:55 AM,71.1,62.2,74,29.98,10.0,South,4.6,-,N/A,,Clear,190,2013-08-02 06:55:00
2:15 AM,70.7,62.4,75,29.97,10.0,South,3.5,-,N/A,,Clear,180,2013-08-02 07:15:00
2:35 AM,70.7,62.4,75,29.96,10.0,South,4.6,-,N/A,,Clear,180,2013-08-02 07:35:00
2:55 AM,70.7,61.7,73,29.96,10.0,South,3.5,-,N/A,,Scattered Clouds,190,2013-08-02 07:55:00
3:15 AM,70.2,61.7,74,29.97,10.0,South,4.6,-,N/A,,Mostly Cloudy,190,2013-08-02 08:15:00
3:35 AM,70.3,61.7,74,29.97,10.0,SSW,3.5,-,N/A,,Overcast,200,2013-08-02 08:35:00
3:55 AM,71.2,61.3,71,29.97,10.0,SSW,5.8,-,N/A,,Mostly Cloudy,210,2013-08-02 08:55:00
4:15 AM,71.6,61.7,71,29.97,10.0,SSW,4.6,-,N/A,,Scattered Clouds,200,2013-08-02 09:15:00
4:35 AM,71.2,62.1,73,29.99,10.0,SSW,3.5,-,N/A,,Scattered Clouds,210,2013-08-02 09:35:00
4:55 AM,71.1,62.6,75,29.98,10.0,SSW,4.6,-,N/A,,Clear,200,2013-08-02 09:55:00
5:15 AM,71.1,63.0,75,29.97,10.0,South,5.8,-,N/A,,Clear,190,2013-08-02 10:15:00
5:35 AM,70.7,63.5,78,29.97,10.0,SSW,5.8,-,N/A,,Mostly Cloudy,200,2013-08-02 10:35:00
5:55 AM,70.9,63.7,78,29.96,10.0,SSW,5.8,-,N/A,,Mostly Cloudy,200,2013-08-02 10:55:00
6:15 AM,70.9,63.7,78,29.96,10.0,South,4.6,-,N/A,,Mostly Cloudy,190,2013-08-02 11:15:00
6:35 AM,71.1,63.9,78,29.96,10.0,South,4.6,-,N/A,,Mostly Cloudy,190,2013-08-02 11:35:00
6:55 AM,71.1,64.0,78,29.96,10.0,SSW,5.8,-,N/A,,Overcast,200,2013-08-02 11:55:00
7:15 AM,71.2,64.4,79,29.96,10.0,South,4.6,-,N/A,,Mostly Cloudy,180,2013-08-02 12:15:00
7:35 AM,71.6,64.4,78,29.96,10.0,South,4.6,-,N/A,,Mostly Cloudy,180,2013-08-02 12:35:00
7:55 AM,72.1,64.6,77,29.97,10.0,South,3.5,-,N/A,,Overcast,190,2013-08-02 12:55:00
8:15 AM,72.5,64.9,77,29.98,10.0,SSW,4.6,-,N/A,,Overcast,200,2013-08-02 13:15:00
8:35 AM,72.9,65.3,77,29.98,10.0,SSW,3.5,-,N/A,,Scattered Clouds,210,2013-08-02 13:35:00
8:55 AM,73.4,65.3,76,29.98,10.0,South,3.5,-,N/A,,Scattered Clouds,190,2013-08-02 13:55:00
9:15 AM,73.8,65.8,76,29.98,10.0,WSW,3.5,-,N/A,,Mostly Cloudy,240,2013-08-02 14:15:00
9:35 AM,74.7,66.4,75,29.98,10.0,Calm,Calm,-,N/A,,Overcast,0,2013-08-02 14:35:00
9:55 AM,75.2,66.0,73,29.99,10.0,Calm,Calm,-,N/A,,Overcast,0,2013-08-02 14:55:00
10:15 AM,75.6,66.4,73,29.98,10.0,Calm,Calm,-,N/A,,Mostly Cloudy,0,2013-08-02 15:15:00
10:35 AM,76.1,66.4,72,29.99,10.0,Calm,Calm,-,N/A,,Mostly Cloudy,0,2013-08-02 15:35:00
10:55 AM,76.3,67.8,75,29.99,10.0,South,3.5,-,N/A,,Mostly Cloudy,180,2013-08-02 15:55:00
11:15 AM,76.8,68.2,75,29.99,10.0,South,6.9,-,N/A,,Mostly Cloudy,190,2013-08-02 16:15:00
11:35 AM,78.4,68.0,70,29.99,10.0,South,6.9,-,N/A,,Scattered Clouds,180,2013-08-02 16:35:00
11:55 AM,78.3,68.2,71,29.98,10.0,South,6.9,-,N/A,,Scattered Clouds,170,2013-08-02 16:55:00
12:15 PM,78.1,68.0,71,29.98,10.0,South,4.6,-,N/A,,Mostly Cloudy,180,2013-08-02 17:15:00
12:35 PM,78.3,68.2,71,29.99,10.0,SSW,8.1,-,N/A,,Overcast,200,2013-08-02 17:35:00
12:55 PM,78.1,68.0,71,29.98,10.0,SSW,6.9,-,N/A,,Scattered Clouds,210,2013-08-02 17:55:00
1:15 PM,79.0,68.7,71,29.97,10.0,South,6.9,-,N/A,,Mostly Cloudy,180,2013-08-02 18:15:00
1:35 PM,79.0,69.3,72,29.96,10.0,South,5.8,-,N/A,,Mostly Cloudy,180,2013-08-02 18:35:00
1:55 PM,80.1,70.0,71,29.95,10.0,SSE,9.2,-,N/A,,Mostly Cloudy,160,2013-08-02 18:55:00
2:15 PM,80.4,69.8,70,29.95,10.0,South,8.1,-,N/A,,Mostly Cloudy,180,2013-08-02 19:15:00
2:35 PM,79.9,69.6,71,29.95,10.0,South,4.6,-,N/A,,Mostly Cloudy,180,2013-08-02 19:35:00
2:55 PM,79.7,70.0,72,29.95,10.0,SSW,3.5,-,N/A,,Overcast,200,2013-08-02 19:55:00
3:15 PM,79.7,70.0,72,29.95,10.0,South,5.8,-,N/A,,Overcast,190,2013-08-02 20:15:00
3:35 PM,78.8,69.4,73,29.95,10.0,SSW,9.2,-,N/A,,Overcast,200,2013-08-02 20:35:00
3:55 PM,77.9,68.9,74,29.94,10.0,South,9.2,16.1,N/A,,Overcast,190,2013-08-02 20:55:00
4:15 PM,75.6,69.1,80,29.95,10.0,SSW,5.8,16.1,N/A,,Overcast,200,2013-08-02 21:15:00
4:35 PM,73.9,69.6,86,29.95,7.0,SSW,6.9,-,N/A,Rain,Light Rain,200,2013-08-02 21:35:00
4:55 PM,73.0,69.8,90,29.95,5.0,SSW,8.1,-,N/A,,Light Drizzle,200,2013-08-02 21:55:00
5:15 PM,71.8,68.5,89,29.96,4.0,South,8.1,-,0.02,Rain,Rain,180,2013-08-02 22:15:00
5:35 PM,71.6,68.5,90,29.95,3.0,SSE,5.8,-,0.08,Rain,Rain,160,2013-08-02 22:35:00
5:55 PM,72.5,69.4,90,29.95,3.0,South,5.8,-,0.10,Rain,Light Rain,180,2013-08-02 22:55:00
6:15 PM,72.5,69.6,91,29.93,5.0,SSE,6.9,-,N/A,,Scattered Clouds,150,2013-08-02 23:15:00
6:35 PM,72.5,68.5,87,29.94,7.0,South,3.5,-,N/A,,Scattered Clouds,170,2013-08-02 23:35:00
6:55 PM,73.2,68.9,86,29.94,10.0,South,5.8,-,N/A,,Clear,180,2013-08-02 23:55:00
7:15 PM,73.4,68.9,86,29.95,10.0,South,4.6,-,N/A,,Clear,190,2013-08-03 00:15:00
7:35 PM,72.5,68.5,87,29.95,10.0,South,4.6,-,N/A,,Scattered Clouds,180,2013-08-03 00:35:00
7:55 PM,72.3,68.7,88,29.96,10.0,South,8.1,-,N/A,,Overcast,180,2013-08-03 00:55:00
8:15 PM,71.6,68.4,89,29.96,7.0,South,5.8,-,N/A,,Overcast,180,2013-08-03 01:15:00
8:35 PM,71.2,67.5,88,29.97,10.0,South,3.5,-,N/A,,Overcast,190,2013-08-03 01:35:00
8:55 PM,70.3,67.3,90,29.96,10.0,South,4.6,-,N/A,,Overcast,190,2013-08-03 01:55:00
9:15 PM,69.8,67.1,91,29.96,7.0,South,3.5,-,N/A,,Scattered Clouds,190,2013-08-03 02:15:00
9:35 PM,69.3,66.7,92,29.95,5.0,South,3.5,-,N/A,,Scattered Clouds,180,2013-08-03 02:35:00
9:55 PM,68.9,66.6,92,29.95,4.0,Calm,Calm,-,N/A,,Scattered Clouds,0,2013-08-03 02:55:00
10:15 PM,68.4,66.2,93,29.95,2.5,Calm,Calm,-,N/A,,Clear,0,2013-08-03 03:15:00
10:35 PM,68.0,65.8,93,29.95,0.8,Calm,Calm,-,N/A,,Mist,0,2013-08-03 03:35:00
10:55 PM,67.3,65.3,93,29.96,1.2,Calm,Calm,-,N/A,,Mist,0,2013-08-03 03:55:00
11:15 PM,67.3,65.3,93,29.96,2.0,Calm,Calm,-,N/A,,Clear,0,2013-08-03 04:15:00
11:35 PM,67.3,65.3,93,29.97,3.0,Calm,Calm,-,N/A,,Scattered Clouds,0,2013-08-03 04:35:00
11:55 PM,67.1,65.1,93,29.97,2.5,Calm,Calm,-,N/A,,Clear,0,2013-08-03 04:55:00